When you browse on this site, cookies collect data to enhance your experience and personalize the content and advertising you see.
Visit our Privacy Policy to learn more. By continuing to use the site, you agree to this use of cookies and data.
  • In Deutschland
  • Länderverzeichnis
  • Für 7 Tage
  • Wassertemperatur
  • Satellitenkarten
  • Wetterkarte
  • Widgets
  • user-avatar
    Anmelden

    Stündliche Wetter Mendoza

    Heute, 25 Mai, Samstag

    Zeit Temperatur Niederschläge Wind Luftdruck Luftfeuchtigkeit
    00:00 +13°C° 0 mm 1 m/S 696 mmHg 24%
    01:00 +12°C° 0 mm 1 m/S 695 mmHg 25%
    02:00 +12°C° 0 mm 1 m/S 695 mmHg 26%
    03:00 +12°C° 0 mm 1 m/S 695 mmHg 27%
    04:00 +12°C° 0 mm 2 m/S 694 mmHg 28%
    05:00 +12°C° 0 mm 1 m/S 694 mmHg 28%
    06:00 +12°C° 0 mm 1 m/S 695 mmHg 29%
    07:00 +12°C° 0 mm 1 m/S 695 mmHg 30%
    08:00 +14°C° 0 mm 1 m/S 695 mmHg 27%
    09:00 +16°C° 0 mm 1 m/S 695 mmHg 24%
    10:00 +19°C° 0 mm 1 m/S 695 mmHg 21%
    11:00 +20°C° 0 mm 1 m/S 695 mmHg 19%
    12:00 +20°C° 0 mm 2 m/S 694 mmHg 17%
    13:00 +21°C° 0 mm 2 m/S 694 mmHg 15%
    14:00 +20°C° 0 mm 2 m/S 694 mmHg 17%
    15:00 +20°C° 0 mm 1 m/S 694 mmHg 18%
    16:00 +20°C° 0 mm 1 m/S 694 mmHg 20%
    17:00 +18°C° 0 mm 1 m/S 694 mmHg 21%
    18:00 +16°C° 0 mm 1 m/S 694 mmHg 23%
    19:00 +15°C° 0 mm 1 m/S 694 mmHg 24%
    20:00 +14°C° 0 mm 1 m/S 695 mmHg 24%
    21:00 +14°C° 0 mm 1 m/S 695 mmHg 24%
    22:00 +14°C° 0 mm 2 m/S 695 mmHg 24%
    23:00 +13°C° 0 mm 2 m/S 695 mmHg 25%

    Morgen, 26 Mai, Sonntag

    Zeit Temperatur Niederschläge Wind Luftdruck Luftfeuchtigkeit
    00:00 +13°C° 0 mm 2 m/S 695 mmHg 25%
    01:00 +12°C° 0 mm 2 m/S 695 mmHg 26%
    02:00 +12°C° 0 mm 2 m/S 695 mmHg 26%
    03:00 +12°C° 0 mm 2 m/S 695 mmHg 27%
    04:00 +11°C° 0 mm 3 m/S 695 mmHg 27%
    05:00 +11°C° 0 mm 3 m/S 695 mmHg 26%
    06:00 +11°C° 0 mm 3 m/S 696 mmHg 26%
    07:00 +11°C° 0 mm 3 m/S 696 mmHg 26%
    08:00 +13°C° 0 mm 3 m/S 697 mmHg 24%
    09:00 +16°C° 0 mm 3 m/S 697 mmHg 23%
    10:00 +18°C° 0 mm 3 m/S 698 mmHg 21%
    11:00 +18°C° 0 mm 4 m/S 697 mmHg 21%
    12:00 +19°C° 0 mm 4 m/S 697 mmHg 20%
    13:00 +20°C° 0 mm 5 m/S 697 mmHg 20%
    14:00 +19°C° 0 mm 4 m/S 697 mmHg 22%
    15:00 +18°C° 0 mm 4 m/S 697 mmHg 24%
    16:00 +18°C° 0 mm 4 m/S 697 mmHg 25%
    17:00 +16°C° 0 mm 3 m/S 697 mmHg 29%
    18:00 +15°C° 0 mm 2 m/S 698 mmHg 32%
    19:00 +13°C° 0 mm 2 m/S 698 mmHg 36%
    20:00 +13°C° 0 mm 2 m/S 698 mmHg 38%
    21:00 +12°C° 0 mm 2 m/S 699 mmHg 39%
    22:00 +12°C° 0 mm 2 m/S 699 mmHg 41%
    23:00 +10°C° 0 mm 2 m/S 699 mmHg 41%

    übermorgen, 27 Mai, Montag

    Zeit Temperatur Niederschläge Wind Luftdruck Luftfeuchtigkeit
    00:00 +10°C° 0 mm 2 m/S 699 mmHg 41%
    01:00 +9°C° 0 mm 2 m/S 698 mmHg 41%
    02:00 +9°C° 0 mm 2 m/S 698 mmHg 41%
    03:00 +9°C° 0 mm 2 m/S 698 mmHg 41%
    04:00 +8°C° 0 mm 2 m/S 697 mmHg 41%
    05:00 +9°C° 0 mm 1 m/S 697 mmHg 41%
    06:00 +9°C° 0 mm 1 m/S 697 mmHg 42%
    07:00 +9°C° 0 mm 1 m/S 697 mmHg 42%
    08:00 +11°C° 0 mm 1 m/S 697 mmHg 38%
    09:00 +13°C° 0 mm 1 m/S 697 mmHg 33%
    10:00 +14°C° 0 mm 1 m/S 697 mmHg 29%
    11:00 +15°C° 0 mm 2 m/S 696 mmHg 28%
    12:00 +16°C° 0 mm 2 m/S 696 mmHg 28%
    13:00 +16°C° 0 mm 2 m/S 695 mmHg 28%
    14:00 +16°C° 0 mm 2 m/S 695 mmHg 29%
    15:00 +16°C° 0 mm 2 m/S 695 mmHg 30%
    16:00 +16°C° 0 mm 2 m/S 695 mmHg 31%
    17:00 +15°C° 0 mm 1 m/S 695 mmHg 34%
    18:00 +14°C° 0 mm 1 m/S 695 mmHg 36%
    19:00 +12°C° 0 mm 1 m/S 695 mmHg 39%
    20:00 +12°C° 0 mm 1 m/S 696 mmHg 40%
    21:00 +12°C° 0 mm 1 m/S 696 mmHg 40%
    22:00 +10°C° 0 mm 2 m/S 696 mmHg 40%
    23:00 +10°C° 0 mm 2 m/S 696 mmHg 41%

    28 Mai, Dienstag

    Zeit Temperatur Niederschläge Wind Luftdruck Luftfeuchtigkeit
    00:00 +10°C° 0 mm 2 m/S 695 mmHg 41%
    01:00 +9°C° 0 mm 2 m/S 695 mmHg 42%
    02:00 +9°C° 0 mm 2 m/S 695 mmHg 42%
    03:00 +9°C° 0 mm 2 m/S 695 mmHg 42%
    04:00 +9°C° 0 mm 2 m/S 695 mmHg 42%
    05:00 +9°C° 0 mm 2 m/S 695 mmHg 41%
    06:00 +10°C° 0 mm 2 m/S 696 mmHg 41%
    07:00 +10°C° 0 mm 2 m/S 696 mmHg 40%
    08:00 +12°C° 0 mm 2 m/S 696 mmHg 37%
    09:00 +14°C° 0 mm 2 m/S 697 mmHg 34%
    10:00 +15°C° 0 mm 2 m/S 697 mmHg 31%
    11:00 +16°C° 0 mm 2 m/S 697 mmHg 30%
    12:00 +16°C° 0 mm 2 m/S 696 mmHg 28%
    13:00 +17°C° 0 mm 2 m/S 696 mmHg 26%
    14:00 +17°C° 0 mm 2 m/S 696 mmHg 27%
    15:00 +17°C° 0 mm 2 m/S 696 mmHg 27%
    16:00 +16°C° 0 mm 2 m/S 696 mmHg 28%
    17:00 +15°C° 0 mm 2 m/S 696 mmHg 30%
    18:00 +15°C° 0 mm 2 m/S 696 mmHg 32%
    19:00 +14°C° 0 mm 2 m/S 696 mmHg 35%
    20:00 +12°C° 0 mm 3 m/S 696 mmHg 38%
    21:00 +11°C° 0 mm 3 m/S 696 mmHg 41%
    22:00 +11°C° 0 mm 3 m/S 696 mmHg 44%
    23:00 +10°C° 0 mm 3 m/S 695 mmHg 46%

    29 Mai, Mittwoch

    Zeit Temperatur Niederschläge Wind Luftdruck Luftfeuchtigkeit
    00:00 +10°C° 0 mm 4 m/S 695 mmHg 48%
    01:00 +8°C° 0 mm 5 m/S 695 mmHg 51%
    02:00 +8°C° 0 mm 4 m/S 695 mmHg 53%
    03:00 +8°C° 0 mm 4 m/S 695 mmHg 55%
    04:00 +8°C° 0 mm 4 m/S 694 mmHg 56%
    05:00 +9°C° 0 mm 3 m/S 695 mmHg 58%
    06:00 +9°C° 0 mm 3 m/S 695 mmHg 59%
    07:00 +9°C° 0 mm 3 m/S 695 mmHg 61%
    08:00 +10°C° 0 mm 3 m/S 695 mmHg 59%
    09:00 +11°C° 0 mm 3 m/S 695 mmHg 58%
    10:00 +12°C° 0 mm 3 m/S 695 mmHg 57%
    11:00 +13°C° 0 mm 3 m/S 695 mmHg 55%
    12:00 +13°C° 0 mm 3 m/S 695 mmHg 53%
    13:00 +15°C° 0 mm 2 m/S 695 mmHg 51%
    14:00 +15°C° 0 mm 2 m/S 695 mmHg 53%
    15:00 +15°C° 0 mm 2 m/S 695 mmHg 54%
    16:00 +14°C° 0 mm 2 m/S 695 mmHg 56%
    17:00 +14°C° 0 mm 2 m/S 695 mmHg 59%
    18:00 +13°C° 0 mm 2 m/S 696 mmHg 62%
    19:00 +12°C° 0 mm 2 m/S 697 mmHg 66%
    20:00 +10°C° 0 mm 2 m/S 697 mmHg 70%
    21:00 +10°C° 0 mm 2 m/S 697 mmHg 75%
    22:00 +9°C° 0 mm 2 m/S 697 mmHg 80%
    23:00 +10°C° 0 mm 1 m/S 697 mmHg 82%

    30 Mai, Donnerstag

    Zeit Temperatur Niederschläge Wind Luftdruck Luftfeuchtigkeit
    00:00 +10°C° 0 mm 1 m/S 697 mmHg 83%
    01:00 +10°C° 0 mm 1 m/S 697 mmHg 85%
    02:00 +9°C° 0 mm 1 m/S 697 mmHg 84%
    03:00 +9°C° 0 mm 1 m/S 698 mmHg 83%
    04:00 +9°C° 0 mm 1 m/S 698 mmHg 82%
    05:00 +9°C° 0 mm 1 m/S 698 mmHg 79%
    06:00 +9°C° 0 mm 1 m/S 698 mmHg 77%
    07:00 +9°C° 0 mm 1 m/S 699 mmHg 75%
    08:00 +10°C° 0 mm 1 m/S 698 mmHg 69%
    09:00 +12°C° 0 mm 2 m/S 698 mmHg 64%
    10:00 +13°C° 0 mm 2 m/S 698 mmHg 59%
    11:00 +14°C° 0 mm 2 m/S 697 mmHg 57%
    12:00 +15°C° 0 mm 2 m/S 697 mmHg 55%
    13:00 +15°C° 0 mm 2 m/S 696 mmHg 53%
    14:00 +15°C° 0 mm 2 m/S 696 mmHg 54%
    15:00 +15°C° 0 mm 2 m/S 696 mmHg 55%
    16:00 +14°C° 0 mm 2 m/S 696 mmHg 56%
    17:00 +13°C° 0 mm 2 m/S 696 mmHg 61%
    18:00 +12°C° 0 mm 2 m/S 697 mmHg 65%
    19:00 +10°C° 0 mm 2 m/S 697 mmHg 70%
    20:00 +10°C° 0 mm 2 m/S 697 mmHg 68%
    21:00 +10°C° 0 mm 2 m/S 697 mmHg 66%
    22:00 +9°C° 0 mm 2 m/S 697 mmHg 64%
    23:00 +9°C° 0 mm 2 m/S 697 mmHg 62%
    Mehr zeigen